Location: Unspecified
(0.0000°N, 0.0000°E)
Time: 15:19:23
(UTC+00:00)

deb Briz - Pass Details

Date: 18 February 2026
Orbit: 1589 x 2054 km, 64.9° (Epoch: 5 March)

Event Time Altitude Azimuth Distance (km) Brightness Sun altitude
Rises 02:50:24 0° 165° (SSE) 5,276 ? -49.5°
Reaches altitude 10° 02:56:42 10° 139° (SE) 4,165 ? -48.0°
Maximum altitude 03:00:45 13° 116° (ESE) 3,865 ? -47.0°
Drops below altitude 10° 03:04:41 10° 92° (E) 4,017 ? -46.0°
Sets 03:10:20 0° 66° (ENE) 4,911 ? -44.7°
